FENGYUN 1C DEB, 31296

Orbit data source: Space-Track

FENGYUN 1C DEB, 31296 is space debris in SSO originally from a launch on Mon, 10 May 1999 UTC launched from the Taiyaun Space Center, China (TSC). Fengyun 1C debris stems from the Chinese weather satellite Fengyun-1C, which was intentionally destroyed by a Chinese anti-satellite missile in 2007. This event dramatically increased the amount of space debris, with thousands of trackable fragments posing hazards to satellites and human spaceflight. The Fengyun 1C debris cloud has become a focal point in discussions about space sustainability and the need for international regulations to prevent the creation of new debris.

Loading next visibility...
Identifier
31296, 1999-025BPE
Orbit
SSO
Country
Flag of CNCN / PRC
Related business
Manufacturer
Unknown
Mission
Spacecraft
Bus & Motor
Unknown
Mass
Unknown
Launch date (UTC)
1999-05-10 (26 years ago)
Launch vehicle
Unknown
Launch site
Taiyaun Space Center, China (TSC)
Object type
Payload
Rocket body
Debris
Shape & HBR
Unknown shape, 0.1 m
Radar Cross Section
Small (<0.1 m²)

Expand to show TLE details & history
Last TLE update: 11 hours ago

TLE from 11 hours ago
0 FENGYUN 1C DEB
1 31296U 99025BPE 25310.70758870  .00048303  00000-0  82839-2 0  9999
2 31296  99.0652 221.6316 0026947 335.0598  24.9300 14.68269264968207
Epoch: 2025-11-06T16:58Z
TLE epoch observation values (Epoch: 2025-11-06T16:58:55.663Z)
Latitude
-0.00004°
Longitude
-79.26236°
Altitude
652.358 km
Speed
7.541 km/s
True Right ascension
14h 46m 31s
True Declination
0° 00' 00"
Sunlit
Object was in daylight at epoch
Visualization orbit readout
Latitude
Unknown
Longitude
Unknown
Altitude
Unknown
Speed
Unknown
Apparent Right ascension
Unknown
Apparent Declination
Unknown
Sunlit
N/A
Visualization observer readout
Local Sidereal Time
00:24:25
Azimuth
Unknown
Elevation
Unknown
Doppler factor
Unknown
Orbital elements
Apogee altitude
682.686 km
Perigee altitude
644.735 km
Semi-major axis
7,041.848 km
Eccentricity
0.00269
Inclination
99.0652°
RAAN
221.6316°
Arg. of periapsis
335.0598°
True anomaly
25.06056°
Mean anomaly
24.93°
Eccentric anomaly
24.99524°
Mean motion
3.67293 °/min
Orbital period
98.01 mins
BSTAR
0.0082839
Loading maneuver chart data...
Computing Atmospheric mass density...

Documentation

Showing up to 5 results
|